QFA882 YPAD-YMML

Flight info

Callsign QFA882
Flight time 1h 3m
Altitude 35000
Route AD V255 BENDO Y12 ARBEY H119 ML
Aircraft B738/M-SDE2E3FGHIRWXY/LB1

Departure

Time 2026-05-07 09:54
Airport Adelaide International Airport (YPAD)

Arrival

Time 2026-05-07 10:57
Airport Melbourne Airport (YMML)
Time Latitude Longitude Altitude Speed Heading
2026-05-07 09:48 -34.93997 138.53917 39 ft 0 kts 232°
2026-05-07 09:51 -34.94002 138.53909 39 ft 6 kts 230°
2026-05-07 09:51 -34.94041 138.53882 39 ft 9 kts 177°
2026-05-07 09:52 -34.94083 138.53949 39 ft 12 kts 70°
2026-05-07 09:52 -34.94021 138.54051 39 ft 14 kts 50°
2026-05-07 09:52 -34.93961 138.54153 40 ft 8 kts 72°
2026-05-07 09:52 -34.93966 138.54199 41 ft 6 kts 118°
2026-05-07 09:53 -34.94016 138.54256 40 ft 13 kts 151°
2026-05-07 09:53 -34.94131 138.54227 39 ft 26 kts 229°
2026-05-07 09:53 -34.94397 138.53838 36 ft 99 kts 230°
2026-05-07 09:53 -34.94979 138.52980 156 ft 155 kts 230°
2026-05-07 09:54 -34.95618 138.51965 1126 ft 155 kts 229°
2026-05-07 09:54 -34.96336 138.50903 1969 ft 175 kts 229°
2026-05-07 09:54 -34.97164 138.49692 2689 ft 200 kts 228°
2026-05-07 09:54 -34.98101 138.48346 3543 ft 220 kts 227°
2026-05-07 09:55 -34.99134 138.46874 4347 ft 242 kts 227°
2026-05-07 09:55 -35.00264 138.45355 5380 ft 250 kts 218°
2026-05-07 09:55 -35.01824 138.44488 6375 ft 255 kts 185°
2026-05-07 09:55 -35.03531 138.44905 7562 ft 259 kts 152°
2026-05-07 09:56 -35.04840 138.46402 8633 ft 270 kts 128°
2026-05-07 09:56 -35.05749 138.48418 9678 ft 280 kts 114°
2026-05-07 09:56 -35.06223 138.50709 10674 ft 287 kts 106°
2026-05-07 09:56 -35.06638 138.53113 11616 ft 294 kts 107°
2026-05-07 09:57 -35.07089 138.55516 12601 ft 297 kts 108°
2026-05-07 09:57 -35.07547 138.57976 13435 ft 302 kts 108°
2026-05-07 09:57 -35.08014 138.60495 14259 ft 308 kts 107°
2026-05-07 09:57 -35.08495 138.63042 15090 ft 312 kts 107°
2026-05-07 09:58 -35.08984 138.65645 15846 ft 319 kts 107°
2026-05-07 09:58 -35.09467 138.68278 16623 ft 323 kts 107°
2026-05-07 09:58 -35.09971 138.70995 16948 ft 342 kts 107°
2026-05-07 09:58 -35.10522 138.73933 17190 ft 363 kts 106°
2026-05-07 09:59 -35.11095 138.77034 17361 ft 385 kts 106°
2026-05-07 09:59 -35.11678 138.80241 17939 ft 392 kts 106°
2026-05-07 09:59 -35.12271 138.83498 18436 ft 401 kts 106°
2026-05-07 09:59 -35.12879 138.86826 19140 ft 404 kts 105°
2026-05-07 10:00 -35.13497 138.90222 19736 ft 409 kts 105°
2026-05-07 10:00 -35.14111 138.93574 20317 ft 413 kts 105°
2026-05-07 10:00 -35.14748 138.97044 20900 ft 418 kts 105°
2026-05-07 10:00 -35.15377 139.00493 21426 ft 423 kts 105°
2026-05-07 10:01 -35.16021 139.04039 22014 ft 426 kts 105°
2026-05-07 10:01 -35.16660 139.07559 22522 ft 430 kts 105°
2026-05-07 10:01 -35.17304 139.11130 23023 ft 434 kts 105°
2026-05-07 10:01 -35.17955 139.14745 23534 ft 438 kts 105°
2026-05-07 10:02 -35.18599 139.18347 24047 ft 441 kts 105°
2026-05-07 10:02 -35.19257 139.22032 24526 ft 444 kts 105°
2026-05-07 10:02 -35.19910 139.25703 25078 ft 446 kts 105°
2026-05-07 10:02 -35.20578 139.29423 25534 ft 449 kts 105°
2026-05-07 10:03 -35.21241 139.33142 26015 ft 452 kts 105°
2026-05-07 10:03 -35.21909 139.36906 26406 ft 456 kts 105°
2026-05-07 10:03 -35.22578 139.40671 26880 ft 457 kts 105°
2026-05-07 10:03 -35.23252 139.44457 27286 ft 460 kts 105°
2026-05-07 10:04 -35.23969 139.48302 27754 ft 461 kts 107°
2026-05-07 10:04 -35.24918 139.51987 28243 ft 458 kts 115°
2026-05-07 10:04 -35.26198 139.55580 28755 ft 457 kts 118°
2026-05-07 10:04 -35.27508 139.59105 29278 ft 456 kts 118°
2026-05-07 10:05 -35.28791 139.62585 29805 ft 455 kts 118°
2026-05-07 10:05 -35.30035 139.66133 30239 ft 456 kts 110°
2026-05-07 10:05 -35.31775 139.69232 30546 ft 439 kts 143°
2026-05-07 10:05 -35.34141 139.71519 31193 ft 433 kts 143°
2026-05-07 10:06 -35.36190 139.74277 31346 ft 446 kts 126°
2026-05-07 10:06 -35.37561 139.77670 31881 ft 447 kts 116°
2026-05-07 10:06 -35.38751 139.81155 32296 ft 447 kts 116°
2026-05-07 10:06 -35.39997 139.84636 32662 ft 447 kts 117°
2026-05-07 10:07 -35.41253 139.88100 33107 ft 446 kts 117°
2026-05-07 10:07 -35.42504 139.91580 33530 ft 445 kts 117°
2026-05-07 10:07 -35.43727 139.95013 33914 ft 444 kts 117°
2026-05-07 10:07 -35.44963 139.98489 34328 ft 443 kts 117°
2026-05-07 10:08 -35.46188 140.01939 34769 ft 441 kts 117°
2026-05-07 10:08 -35.47411 140.05394 35144 ft 441 kts 117°
2026-05-07 10:08 -35.48646 140.08881 35407 ft 443 kts 117°
2026-05-07 10:09 -35.51142 140.15939 35397 ft 456 kts 117°
2026-05-07 10:09 -35.53701 140.23218 35395 ft 468 kts 117°
2026-05-07 10:10 -35.56301 140.30621 35392 ft 475 kts 117°
2026-05-07 10:10 -35.58921 140.38115 35386 ft 474 kts 117°
2026-05-07 10:11 -35.61504 140.45525 35386 ft 472 kts 117°
2026-05-07 10:11 -35.64069 140.52899 35383 ft 473 kts 117°
2026-05-07 10:12 -35.66644 140.60329 35384 ft 474 kts 117°
2026-05-07 10:12 -35.69241 140.67824 35383 ft 474 kts 116°
2026-05-07 10:13 -35.71805 140.75258 35381 ft 475 kts 116°
2026-05-07 10:13 -35.74386 140.82741 35376 ft 475 kts 117°
2026-05-07 10:14 -35.76957 140.90224 35374 ft 475 kts 116°
2026-05-07 10:14 -35.79524 140.97704 35372 ft 475 kts 116°
2026-05-07 10:15 -35.82074 141.05160 35370 ft 475 kts 117°
2026-05-07 10:15 -35.84622 141.12639 35368 ft 476 kts 117°
2026-05-07 10:16 -35.87187 141.20178 35367 ft 476 kts 117°
2026-05-07 10:16 -35.89732 141.27670 35361 ft 476 kts 117°
2026-05-07 10:17 -35.92281 141.35194 35361 ft 475 kts 117°
2026-05-07 10:17 -35.94823 141.42712 35355 ft 476 kts 117°
2026-05-07 10:18 -35.97355 141.50218 35344 ft 477 kts 117°
2026-05-07 10:18 -35.99891 141.57762 35347 ft 477 kts 117°
2026-05-07 10:19 -36.02429 141.65334 35351 ft 478 kts 116°
2026-05-07 10:19 -36.04962 141.72917 35344 ft 478 kts 117°
2026-05-07 10:20 -36.07476 141.80455 35341 ft 478 kts 116°
2026-05-07 10:20 -36.10008 141.88055 35331 ft 477 kts 117°
2026-05-07 10:21 -36.12531 141.95651 35330 ft 478 kts 117°
2026-05-07 10:21 -36.15045 142.03244 35330 ft 478 kts 117°
2026-05-07 10:22 -36.17562 142.10831 35326 ft 478 kts 117°
2026-05-07 10:22 -36.20159 142.18352 35324 ft 480 kts 117°
2026-05-07 10:23 -36.22772 142.25961 35324 ft 482 kts 117°
2026-05-07 10:23 -36.25378 142.33603 35314 ft 482 kts 118°
2026-05-07 10:24 -36.27971 142.41219 35082 ft 477 kts 118°
2026-05-07 10:24 -36.29251 142.44983 34108 ft 476 kts 118°
2026-05-07 10:24 -36.30511 142.48708 33703 ft 472 kts 118°
2026-05-07 10:24 -36.31805 142.52519 33315 ft 482 kts 118°
2026-05-07 10:25 -36.33117 142.56374 32906 ft 489 kts 118°
2026-05-07 10:25 -36.34426 142.60245 32502 ft 490 kts 118°
2026-05-07 10:25 -36.35737 142.64140 32098 ft 489 kts 118°
2026-05-07 10:25 -36.37033 142.67990 31691 ft 485 kts 117°
2026-05-07 10:26 -36.38305 142.71777 31289 ft 472 kts 118°
2026-05-07 10:26 -36.39549 142.75490 30890 ft 459 kts 118°
2026-05-07 10:26 -36.40764 142.79106 30487 ft 448 kts 118°
2026-05-07 10:26 -36.41934 142.82591 30091 ft 437 kts 118°
2026-05-07 10:27 -36.43090 142.86046 29687 ft 428 kts 119°
2026-05-07 10:27 -36.44214 142.89404 29278 ft 418 kts 119°
2026-05-07 10:27 -36.45312 142.92688 28878 ft 410 kts 119°
2026-05-07 10:27 -36.46399 142.95937 28481 ft 402 kts 119°
2026-05-07 10:28 -36.47463 142.99114 28134 ft 399 kts 120°
2026-05-07 10:28 -36.48533 143.02318 27791 ft 402 kts 119°
2026-05-07 10:28 -36.49607 143.05533 27451 ft 405 kts 120°
2026-05-07 10:28 -36.50670 143.08730 27081 ft 407 kts 119°
2026-05-07 10:29 -36.51742 143.11955 26656 ft 401 kts 119°
2026-05-07 10:29 -36.52789 143.15129 26238 ft 392 kts 119°
2026-05-07 10:29 -36.53821 143.18251 25826 ft 392 kts 120°
2026-05-07 10:30 -36.55896 143.24516 25008 ft 395 kts 119°
2026-05-07 10:30 -36.56939 143.27689 24598 ft 394 kts 120°
2026-05-07 10:30 -36.57966 143.30820 24194 ft 390 kts 120°
2026-05-07 10:30 -36.58974 143.33885 23797 ft 385 kts 120°
2026-05-07 10:31 -36.59988 143.36980 23388 ft 382 kts 120°
2026-05-07 10:31 -36.60986 143.40019 22988 ft 379 kts 120°
2026-05-07 10:31 -36.61972 143.43027 22595 ft 376 kts 120°
2026-05-07 10:31 -36.62947 143.46013 22200 ft 374 kts 120°
2026-05-07 10:32 -36.63927 143.49011 21801 ft 372 kts 120°
2026-05-07 10:32 -36.64894 143.51973 21405 ft 369 kts 120°
2026-05-07 10:32 -36.65846 143.54892 21008 ft 365 kts 120°
2026-05-07 10:32 -36.66792 143.57797 20612 ft 363 kts 120°
2026-05-07 10:33 -36.67746 143.60719 20212 ft 360 kts 120°
2026-05-07 10:33 -36.68684 143.63596 19816 ft 358 kts 120°
2026-05-07 10:33 -36.69608 143.66437 19419 ft 355 kts 120°
2026-05-07 10:33 -36.70550 143.69334 19011 ft 364 kts 119°
2026-05-07 10:34 -36.71489 143.72249 18618 ft 363 kts 119°
2026-05-07 10:34 -36.72419 143.75128 18220 ft 361 kts 120°
2026-05-07 10:34 -36.73373 143.78033 17757 ft 365 kts 119°
2026-05-07 10:34 -36.74330 143.80983 17361 ft 366 kts 119°
2026-05-07 10:35 -36.75275 143.83926 16968 ft 368 kts 119°
2026-05-07 10:35 -36.76229 143.86888 16581 ft 369 kts 119°
2026-05-07 10:35 -36.77191 143.89870 16190 ft 370 kts 119°
2026-05-07 10:35 -36.78145 143.92828 15834 ft 369 kts 119°
2026-05-07 10:36 -36.79097 143.95783 15590 ft 366 kts 119°
2026-05-07 10:36 -36.80042 143.98724 15337 ft 363 kts 119°
2026-05-07 10:36 -36.80974 144.01630 15099 ft 361 kts 119°
2026-05-07 10:36 -36.81905 144.04524 14853 ft 359 kts 119°
2026-05-07 10:37 -36.82828 144.07393 14607 ft 358 kts 119°
2026-05-07 10:37 -36.83749 144.10269 14359 ft 357 kts 119°
2026-05-07 10:37 -36.84672 144.13142 14117 ft 356 kts 119°
2026-05-07 10:37 -36.85584 144.15996 13880 ft 355 kts 119°
2026-05-07 10:38 -36.86497 144.18848 13633 ft 354 kts 119°
2026-05-07 10:38 -36.87384 144.21632 13388 ft 338 kts 119°
2026-05-07 10:38 -36.88210 144.24266 13144 ft 316 kts 120°
2026-05-07 10:38 -36.88995 144.26762 12899 ft 303 kts 120°
2026-05-07 10:39 -36.89785 144.29205 12655 ft 307 kts 120°
2026-05-07 10:39 -36.90569 144.31654 12408 ft 304 kts 120°
2026-05-07 10:39 -36.91351 144.34119 12160 ft 303 kts 120°
2026-05-07 10:39 -36.92122 144.36549 11916 ft 300 kts 120°
2026-05-07 10:40 -36.93012 144.38864 11668 ft 290 kts 132°
2026-05-07 10:40 -36.94258 144.40807 11420 ft 284 kts 141°
2026-05-07 10:40 -36.95559 144.42609 11176 ft 282 kts 140°
2026-05-07 10:40 -36.96856 144.44466 10923 ft 282 kts 140°
2026-05-07 10:41 -36.98146 144.46317 10672 ft 280 kts 140°
2026-05-07 10:41 -36.99408 144.48134 10425 ft 277 kts 140°
2026-05-07 10:41 -37.00659 144.49931 10177 ft 275 kts 140°
2026-05-07 10:41 -37.01923 144.51743 9925 ft 274 kts 140°
2026-05-07 10:42 -37.03148 144.53500 9673 ft 262 kts 140°
2026-05-07 10:42 -37.04328 144.55200 9428 ft 259 kts 140°
2026-05-07 10:42 -37.05527 144.56912 9181 ft 261 kts 140°
2026-05-07 10:42 -37.06716 144.58621 8932 ft 258 kts 140°
2026-05-07 10:43 -37.07897 144.60323 8682 ft 257 kts 140°
2026-05-07 10:43 -37.09069 144.62006 8431 ft 256 kts 140°
2026-05-07 10:43 -37.10248 144.63695 8182 ft 257 kts 140°
2026-05-07 10:43 -37.11422 144.65385 7928 ft 255 kts 140°
2026-05-07 10:44 -37.12584 144.67056 7677 ft 256 kts 140°
2026-05-07 10:44 -37.13753 144.68732 7424 ft 255 kts 140°
2026-05-07 10:44 -37.14905 144.70392 7174 ft 253 kts 140°
2026-05-07 10:44 -37.16070 144.72041 6921 ft 251 kts 143°
2026-05-07 10:45 -37.17460 144.73270 6638 ft 238 kts 166°
2026-05-07 10:45 -37.19008 144.73740 6308 ft 222 kts 175°
2026-05-07 10:45 -37.20497 144.74109 6056 ft 223 kts 173°
2026-05-07 10:45 -37.22021 144.74533 5816 ft 220 kts 174°
2026-05-07 10:46 -37.23463 144.74934 5591 ft 204 kts 176°
2026-05-07 10:46 -37.24794 144.75299 5368 ft 190 kts 176°
2026-05-07 10:46 -37.26061 144.75627 5105 ft 180 kts 176°
2026-05-07 10:46 -37.27264 144.75937 4861 ft 177 kts 176°
2026-05-07 10:47 -37.28463 144.76260 4627 ft 169 kts 178°
2026-05-07 10:47 -37.29579 144.76576 4431 ft 160 kts 175°
2026-05-07 10:47 -37.30627 144.76855 4322 ft 149 kts 179°
2026-05-07 10:47 -37.31630 144.77132 4222 ft 148 kts 179°
2026-05-07 10:48 -37.32639 144.77387 4077 ft 147 kts 175°
2026-05-07 10:48 -37.33647 144.77618 3946 ft 146 kts 180°
2026-05-07 10:48 -37.34626 144.77780 3803 ft 138 kts 181°
2026-05-07 10:48 -37.35551 144.77983 3706 ft 133 kts 180°
2026-05-07 10:49 -37.36486 144.78126 3605 ft 138 kts 184°
2026-05-07 10:49 -37.37419 144.78275 3446 ft 133 kts 181°
2026-05-07 10:49 -37.38347 144.78447 3325 ft 135 kts 182°
2026-05-07 10:49 -37.39285 144.78610 3208 ft 137 kts 181°
2026-05-07 10:50 -37.40224 144.78773 3066 ft 135 kts 185°
2026-05-07 10:50 -37.41170 144.78940 2953 ft 137 kts 182°
2026-05-07 10:50 -37.42105 144.79102 2900 ft 134 kts 181°
2026-05-07 10:50 -37.43094 144.79272 2968 ft 150 kts 180°
2026-05-07 10:51 -37.44106 144.79452 2912 ft 144 kts 182°
2026-05-07 10:51 -37.45092 144.79627 2976 ft 143 kts 181°
2026-05-07 10:51 -37.46100 144.79839 2940 ft 148 kts 178°
2026-05-07 10:51 -37.47099 144.80058 2924 ft 145 kts 181°
2026-05-07 10:52 -37.48096 144.80267 2934 ft 145 kts 180°
2026-05-07 10:52 -37.49110 144.80475 2937 ft 145 kts 181°
2026-05-07 10:52 -37.50129 144.80666 2933 ft 146 kts 181°
2026-05-07 10:52 -37.51139 144.80853 2924 ft 148 kts 180°
2026-05-07 10:53 -37.52138 144.81047 2930 ft 144 kts 183°
2026-05-07 10:53 -37.53133 144.81226 2878 ft 149 kts 182°
2026-05-07 10:53 -37.54163 144.81421 2680 ft 147 kts 182°
2026-05-07 10:53 -37.55177 144.81607 2497 ft 149 kts 181°
2026-05-07 10:54 -37.56203 144.81798 2292 ft 149 kts 181°
2026-05-07 10:54 -37.57230 144.81987 2085 ft 148 kts 181°
2026-05-07 10:54 -37.58259 144.82178 1881 ft 148 kts 181°
2026-05-07 10:54 -37.59282 144.82367 1671 ft 147 kts 180°
2026-05-07 10:55 -37.60317 144.82562 1533 ft 151 kts 179°
2026-05-07 10:55 -37.61343 144.82771 1444 ft 152 kts 179°
2026-05-07 10:55 -37.62377 144.82958 1178 ft 146 kts 179°
2026-05-07 10:55 -37.63399 144.83131 994 ft 151 kts 179°
2026-05-07 10:56 -37.64439 144.83311 734 ft 150 kts 176°
2026-05-07 10:56 -37.65449 144.83517 470 ft 141 kts 175°
2026-05-07 10:56 -37.66328 144.83678 413 ft 108 kts 175°
2026-05-07 10:56 -37.66902 144.83774 389 ft 65 kts 165°
2026-05-07 10:57 -37.67164 144.83983 380 ft 31 kts 140°
2026-05-07 10:57 -37.67228 144.84143 380 ft 12 kts 51°
2026-05-07 10:57 -37.67195 144.84204 382 ft 5 kts 53°
2026-05-07 10:57 -37.67155 144.84248 383 ft 10 kts 28°
2026-05-07 10:58 -37.67075 144.84251 385 ft 13 kts 343°
2026-05-07 10:58 -37.66981 144.84230 386 ft 14 kts 351°
2026-05-07 10:58 -37.66877 144.84209 388 ft 15 kts 352°
2026-05-07 10:58 -37.66788 144.84195 390 ft 16 kts 352°
2026-05-07 10:59 -37.66671 144.84174 392 ft 16 kts 350°
2026-05-07 10:59 -37.66563 144.84206 397 ft 16 kts 49°
2026-05-07 10:59 -37.66518 144.84335 398 ft 16 kts 88°
2026-05-07 10:59 -37.66509 144.84485 399 ft 16 kts 81°
2026-05-07 11:00 -37.66492 144.84621 402 ft 13 kts 81°